Location: Peebles
(55.6412°N, 3.1714°W)
Time: 20:49:44
(UTC+01:00)

deb AGENA D - Pass Details

Date: 08 July 2022
Orbit: 951 x 1019 km, 99.8° (Epoch: 17 August)

Event Time Altitude Azimuth Distance (km) Brightness Sun altitude
Exits shadow 01:45:34 10° 156° (SSE) 2,829 ? -11.6°
Reaches altitude 10° 01:45:38 10° 156° (SSE) 2,803 ? -11.6°
Maximum altitude 01:51:59 84° 69° (ENE) 1,031 ? -11.5°
Drops below altitude 10° 01:58:19 10° 343° (NNW) 2,804 ? -11.4°
Sets 02:00:48 0° 342° (NNW) 3,751 ? -11.3°
